SCP
0 0 0 0 0 0 0 0 0 0 0 0 0 0 0 0 0 0 0 0 0 0
0 0 0 0 0 0 0 0 0 0 0 0 0 0 0 0 0 0 0 0 0 0
0 0 0 0 0 0 0 0 0 0 0 0 0 0 0 0 0 0 0 0 0 0
0 0 0 0 0 0 0 0 0 0 0 0 0 0 0 0 0 0 0 0 0 0
0 0 0 0 0 0 0 0 0 0 0 0 0 0 0 0 0 0 0 0 0 0
0 0 0 0 0 0 0 0 0 0 0 0 0 0 0 0 0 0 0 0 0 0
0 0 0 0 0 0 0 0 0 0 0 0 0 0 0 0 0 0 0 0 0 0
0 0 0 0 0 0 0 0 0 0 0 0 0 0 0 0 0 0 0 0 0 0
0 0 0 0 0 0 0 0 0 0 0 0 0 0 0 0 0 0 0 0 0 0
0 0 0 0 0 0 0 0 0 0 0 0 0 0 0 0 0 0 0 0 0 0
0 0 0 0 0 0 0 0 0 0 0 0 0 0 0 0 0 0 0 0 0 0
0 0 0 0 0 0 0 0 0 0 0 0 0 0 0 0 0 0 0 0 0 0
0 0 0 0 0 0 0 0 0 0 0 0 0 0 0 0 0 0 0 0 0 0
0 0 0 0 0 0 0 0 0 0 0 0 0 0 0 0 0 0 0 0 0 0
Wind_Speed_500mb
41 37 32 32 34 35 38 32 33 36 39 42 44 45 46 49 53 54 57 55 57 59
26 28 28 26 27 27 31 32 33 36 38 41 44 44 41 45 49 50 53 56 55 58
14 15 18 20 21 23 24 23 24 24 25 28 31 33 37 41 45 51 55 59 61 63
17 16 15 14 13 11 12 12 14 17 21 26 32 37 41 45 49 53 57 60 63 66
19 16 15 13 10 9 9 12 16 20 24 28 33 36 40 44 48 52 55 57 59 62
13 11 7 4 3 7 11 15 19 22 25 27 31 34 38 42 45 49 52 55 58 60
8 5 1 3 6 9 14 17 21 23 26 30 34 39 42 46 49 51 53 55 58 59
5 1 3 7 11 13 18 22 27 30 33 36 40 44 48 52 54 58 59 60 61 63
2 4 8 12 16 20 25 29 34 37 40 42 46 50 54 59 62 64 66 68 67 68
4 8 13 17 22 27 31 35 38 42 45 46 48 52 55 59 63 67 67 70 72 73
11 15 20 25 32 37 40 43 46 47 50 53 53 58 61 65 69 74 75 77 78 79
21 25 29 34 39 44 48 50 53 56 58 62 63 64 67 71 75 78 79 79 79 80
28 34 40 44 49 53 57 61 62 64 65 67 70 69 70 71 77 81 82 81 79 78
36 41 47 51 54 59 62 66 70 72 72 71 72 73 71 68 71 74 78 79 80 77
Wind_Direction_500mb
215 216 225 226 226 230 246 253 251 255 258 256 261 268 270 272 275 281 279 282 283 283
223 219 221 226 230 235 239 245 247 250 255 260 264 271 268 273 276 278 280 282 280 279
185 191 197 207 216 223 235 240 243 248 256 264 271 277 280 282 285 286 287 288 287 287
165 169 174 177 184 196 210 226 246 259 269 276 281 283 285 287 287 287 289 289 290 291
145 147 156 170 184 212 247 265 273 280 285 289 290 290 291 291 292 294 295 296 295 295
147 148 157 180 243 287 299 303 303 304 303 301 300 300 300 301 302 301 301 302 301 302
146 140 82 344 320 312 311 311 313 312 312 312 311 311 310 309 309 309 308 308 306 304
147 111 2 342 337 339 332 327 323 320 319 319 317 315 314 311 310 309 308 308 308 307
69 13 353 343 337 336 331 326 322 320 318 317 314 311 310 309 308 306 306 306 305 304
346 341 331 328 324 320 317 314 312 311 310 310 310 309 308 307 306 305 305 305 305 304
299 302 307 311 313 313 312 311 310 309 308 308 309 308 307 307 307 306 307 307 307 306
300 303 305 308 309 309 308 307 307 308 308 308 308 308 307 306 305 304 305 306 307 307
303 307 309 310 311 311 311 310 309 308 308 308 307 306 305 305 304 304 305 304 303 302
305 307 309 309 311 311 311 310 310 309 309 308 306 304 303 303 301 303 304 306 308 309
Wind_Speed_850mb
41 37 32 32 34 35 38 32 33 36 39 42 44 45 46 49 53 54 57 55 57 59
26 28 28 26 27 27 31 32 33 36 38 41 44 44 41 45 49 50 53 56 55 58
14 15 18 20 21 23 24 23 24 24 25 28 31 33 37 41 45 51 55 59 61 63
17 16 15 14 13 11 12 12 14 17 21 26 32 37 41 45 49 53 57 60 63 66
19 16 15 13 10 9 9 12 16 20 24 28 33 36 40 44 48 52 55 57 59 62
13 11 7 4 3 7 11 15 19 22 25 27 31 34 38 42 45 49 52 55 58 60
8 5 1 3 6 9 14 17 21 23 26 30 34 39 42 46 49 51 53 55 58 59
5 1 3 7 11 13 18 22 27 30 33 36 40 44 48 52 54 58 59 60 61 63
2 4 8 12 16 20 25 29 34 37 40 42 46 50 54 59 62 64 66 68 67 68
4 8 13 17 22 27 31 35 38 42 45 46 48 52 55 59 63 67 67 70 72 73
11 15 20 25 32 37 40 43 46 47 50 53 53 58 61 65 69 74 75 77 78 79
21 25 29 34 39 44 48 50 53 56 58 62 63 64 67 71 75 78 79 79 79 80
28 34 40 44 49 53 57 61 62 64 65 67 70 69 70 71 77 81 82 81 79 78
36 41 47 51 54 59 62 66 70 72 72 71 72 73 71 68 71 74 78 79 80 77
Wind_Direction_850mb
215 216 225 226 226 230 246 253 251 255 258 256 261 268 270 272 275 281 279 282 283 283
223 219 221 226 230 235 239 245 247 250 255 260 264 271 268 273 276 278 280 282 280 279
185 191 197 207 216 223 235 240 243 248 256 264 271 277 280 282 285 286 287 288 287 287
165 169 174 177 184 196 210 226 246 259 269 276 281 283 285 287 287 287 289 289 290 291
145 147 156 170 184 212 247 265 273 280 285 289 290 290 291 291 292 294 295 296 295 295
147 148 157 180 243 287 299 303 303 304 303 301 300 300 300 301 302 301 301 302 301 302
146 140 82 344 320 312 311 311 313 312 312 312 311 311 310 309 309 309 308 308 306 304
147 111 2 342 337 339 332 327 323 320 319 319 317 315 314 311 310 309 308 308 308 307
69 13 353 343 337 336 331 326 322 320 318 317 314 311 310 309 308 306 306 306 305 304
346 341 331 328 324 320 317 314 312 311 310 310 310 309 308 307 306 305 305 305 305 304
299 302 307 311 313 313 312 311 310 309 308 308 309 308 307 307 307 306 307 307 307 306
300 303 305 308 309 309 308 307 307 308 308 308 308 308 307 306 305 304 305 306 307 307
303 307 309 310 311 311 311 310 309 308 308 308 307 306 305 305 304 304 305 304 303 302
305 307 309 309 311 311 311 310 310 309 309 308 306 304 303 303 301 303 304 306 308 309